Date,TemperatureHighF,TemperatureAvgF,TemperatureLowF,DewpointHighF,DewpointAvgF,DewpointLowF,HumidityHigh,HumidityAvg,HumidityLow,PressureMaxIn,PressureMinIn,WindSpeedMaxMPH,WindSpeedAvgMPH,GustSpeedMaxMPH,PrecipitationSumIn
2013-1-1,50,35,27,35,30,23,92,82,45,30.32,30.22,10,0,10,0.00
2013-1-2,55,34,24,36,27,21,90,77,34,30.33,30.23,9,1,9,0.00
2013-1-3,58,36,27,38,28,23,90,77,32,30.34,30.23,8,1,8,0.00
2013-1-4,57,37,28,41,29,25,91,76,32,30.36,30.26,8,0,8,0.00
2013-1-5,56,41,30,41,29,15,89,67,21,30.32,30.11,14,0,14,0.00
2013-1-6,43,38,30,39,35,27,92,89,73,30.14,30.06,8,1,8,0.27
2013-1-7,42,34,27,38,31,24,92,90,81,30.29,30.10,11,0,11,0.00
2013-1-8,62,39,30,45,34,28,93,83,42,30.27,30.21,7,0,7,0.00
2013-1-9,64,47,35,50,37,29,90,72,30,30.24,29.93,17,1,17,0.02
2013-1-10,40,33,24,33,28,21,91,84,68,30.15,29.93,17,1,17,0.03
2013-1-11,38,28,21,29,24,18,89,82,61,30.26,30.14,10,1,10,0.00
2013-1-12,41,29,19,28,22,16,89,77,42,30.26,30.17,10,0,10,0.00
2013-1-13,41,29,21,29,23,17,89,79,54,30.27,30.16,8,0,9,0.00
2013-1-14,40,30,20,30,24,17,89,80,57,30.45,30.24,12,1,12,0.00
2013-1-15,52,33,24,32,23,13,89,71,28,30.53,30.44,8,1,8,0.00
2013-1-16,60,38,27,37,27,20,86,69,24,30.50,30.33,9,1,9,0.00
2013-1-17,65,41,28,40,29,22,87,69,21,30.34,30.24,11,1,11,0.00
2013-1-18,66,42,29,44,30,20,87,69,19,30.29,30.20,11,1,11,0.00
2013-1-19,66,42,29,42,30,17,88,69,19,30.32,30.21,12,1,12,0.00
2013-1-20,64,41,29,44,30,22,87,70,22,30.29,30.18,8,1,8,0.00
2013-1-21,68,42,29,41,27,16,84,63,15,30.25,30.19,9,0,9,0.00
2013-1-22,70,45,31,44,26,4,81,57,9,30.22,30.11,10,1,10,0.00
2013-1-23,67,51,34,46,32,10,85,55,11,30.15,30.08,14,0,14,0.00
2013-1-24,60,52,48,54,49,44,93,88,70,30.16,30.05,11,0,11,0.36
2013-1-25,60,52,48,54,49,46,93,92,79,30.16,29.99,10,1,10,0.04
2013-1-26,55,48,41,50,46,40,94,90,77,30.00,29.92,6,0,6,0.00
2013-1-27,47,38,29,44,35,27,92,87,68,30.09,29.93,8,1,12,0.35
2013-1-28,43,33,25,36,30,23,92,87,70,30.30,30.08,10,0,10,0.00
2013-1-29,45,36,28,37,32,26,92,86,68,30.36,30.29,8,1,8,0.00
2013-1-30,61,41,30,48,33,27,93,78,36,30.41,30.32,9,0,9,0.00
2013-1-31,66,44,32,45,34,30,92,72,29,30.34,30.25,8,1,8,0.00
2013-2-1,67,46,32,47,36,29,90,72,28,30.28,30.16,10,1,10,0.00
2013-2-2,65,49,38,50,38,21,89,70,19,30.30,30.22,7,0,7,0.00
2013-2-3,62,44,33,45,36,30,91,76,34,30.23,30.11,10,1,10,0.00
2013-2-4,65,45,33,49,38,30,92,79,49,30.18,30.08,8,1,8,0.00
2013-2-5,62,45,32,47,37,29,91,78,36,30.12,30.01,11,1,11,0.00
2013-2-6,52,41,31,44,37,29,92,87,72,30.18,30.07,10,1,10,0.00
2013-2-7,52,39,28,40,34,26,92,83,56,30.19,29.96,12,1,12,0.36
2013-2-8,41,36,31,36,32,28,92,88,77,29.96,29.88,12,1,12,0.01
2013-2-9,44,36,26,36,32,24,91,85,64,30.14,29.94,10,0,10,0.00
2013-2-10,43,38,28,36,33,25,90,83,66,30.11,30.03,10,1,10,0.00
2013-2-11,51,37,25,35,28,22,91,74,44,30.31,30.09,13,1,13,0.00
2013-2-12,56,39,28,38,30,25,91,72,39,30.40,30.30,10,1,10,0.00
2013-2-13,58,40,29,40,32,26,91,76,45,30.38,30.25,11,1,11,0.00
2013-2-14,64,45,30,45,34,28,92,70,38,30.31,30.21,11,1,11,0.00
2013-2-15,66,46,32,44,35,29,89,71,30,30.33,30.27,11,1,11,0.00
2013-2-16,66,46,32,47,31,16,89,64,16,30.32,30.08,10,1,10,0.00
2013-2-17,62,44,30,40,31,22,88,65,24,30.08,29.97,13,1,13,0.00
2013-2-18,60,43,31,42,33,28,91,73,35,30.05,29.91,10,0,10,0.00
2013-2-19,43,37,31,39,35,29,92,90,85,29.92,29.66,11,0,11,0.58
2013-2-20,35,32,26,33,30,24,92,90,86,30.10,29.74,6,0,6,0.03
2013-2-21,43,38,34,38,34,32,92,88,75,30.20,30.05,8,1,8,0.00
2013-2-22,48,40,32,40,35,30,92,83,66,30.27,30.18,9,0,9,0.00
2013-2-23,48,39,30,41,35,27,92,84,70,30.28,30.08,13,1,13,0.00
2013-2-24,53,37,26,40,30,21,90,76,41,30.31,30.12,12,1,12,0.00
2013-2-25,58,41,28,39,32,26,91,74,40,30.33,30.17,12,1,12,0.00
2013-2-26,56,40,29,41,33,26,91,77,53,30.25,30.14,10,1,10,0.00
2013-2-27,60,44,30,43,33,22,92,70,26,30.40,30.25,13,1,13,0.00
2013-2-28,63,45,32,44,36,29,92,73,42,30.48,30.38,11,1,11,0.00
2013-3-1,71,49,35,48,37,23,92,68,18,30.47,30.30,11,1,11,0.00
2013-3-2,73,54,38,50,36,21,85,57,15,30.31,30.10,10,1,10,0.00
2013-3-3,55,49,36,48,43,34,92,82,55,30.13,29.98,8,0,10,0.05
2013-3-4,62,46,33,48,38,31,93,78,46,30.13,30.02,10,1,10,0.00
2013-3-5,63,48,36,47,39,30,92,72,41,30.09,29.91,12,1,12,0.00
2013-3-6,48,43,36,44,39,31,92,85,51,30.06,29.96,14,1,14,0.20
2013-3-7,45,41,36,41,38,34,92,90,77,29.97,29.84,7,0,7,0.22
2013-3-8,44,40,35,40,38,32,92,90,85,30.03,29.74,7,1,7,0.16
2013-3-9,49,42,34,43,38,32,92,87,77,30.32,30.03,10,1,10,0.01
2013-3-10,61,45,32,44,38,30,92,76,47,30.37,30.28,11,1,11,0.00
2013-3-11,65,48,33,49,40,30,92,77,46,30.29,30.13,12,1,12,0.00
2013-3-12,73,52,36,51,41,31,92,71,23,30.17,30.09,10,1,10,0.00
2013-3-13,78,56,38,55,39,28,86,61,17,30.19,30.10,12,1,12,0.00
2013-3-14,79,58,41,56,43,32,85,64,22,30.15,30.06,11,1,11,0.00
2013-3-15,72,57,44,55,48,38,91,74,33,30.08,29.97,14,1,14,0.00
2013-3-16,69,54,42,56,46,38,93,77,45,30.03,29.96,15,2,15,0.00
2013-3-17,66,50,37,49,39,29,92,69,28,30.06,30.00,14,1,14,0.00
2013-3-18,65,51,36,47,40,33,91,70,40,30.09,30.02,11,1,11,0.00
2013-3-19,68,55,40,48,42,35,91,67,34,30.15,30.05,14,1,15,0.01
2013-3-20,64,53,42,51,45,38,91,76,41,30.14,30.03,13,1,13,0.08
2013-3-21,62,48,37,52,42,34,92,80,58,30.05,29.92,13,1,13,0.00
2013-3-22,58,45,35,49,39,31,93,79,51,30.06,29.93,13,1,13,0.00
2013-3-23,60,45,32,44,36,30,92,73,44,30.12,30.04,12,1,13,0.00
2013-3-24,65,48,34,45,39,32,92,72,43,30.10,29.98,13,1,13,0.00
2013-3-25,67,51,38,50,41,36,92,72,43,30.02,29.91,13,1,13,0.00
2013-3-26,67,52,39,49,40,36,91,69,38,29.96,29.90,14,1,14,0.00
2013-3-27,67,51,38,49,41,36,91,71,45,30.00,29.91,12,1,12,0.00
2013-3-28,63,52,41,51,44,38,90,77,52,30.08,29.99,11,1,11,0.00
2013-3-29,73,54,38,50,41,33,91,66,30,30.11,30.03,12,1,12,0.00
2013-3-30,74,57,42,50,44,37,88,65,30,30.07,29.93,10,1,10,0.00
2013-3-31,63,54,44,50,46,40,92,76,46,30.04,29.94,21,1,21,1.02
2013-4-1,60,48,38,49,43,36,93,84,59,30.12,30.02,9,0,9,0.10
2013-4-2,60,42,36,49,39,34,92,89,62,30.15,30.07,1,0,1,0.00
2013-4-3,73,55,41,55,47,38,93,77,44,30.14,30.00,10,1,10,0.00
2013-4-4,65,53,45,55,48,42,91,83,56,30.11,29.99,10,0,10,0.13
2013-4-5,63,51,38,53,44,36,93,79,54,30.12,30.06,15,1,16,0.00
2013-4-6,66,52,40,53,44,37,91,76,53,30.14,30.06,12,1,13,0.00
2013-4-7,66,53,39,53,44,37,92,75,49,30.11,29.78,18,1,18,0.00
2013-4-8,54,44,35,46,39,31,90,82,66,29.90,29.64,22,1,22,0.34
2013-4-9,63,46,30,45,35,25,90,68,34,30.08,29.90,13,1,14,0.01
2013-4-10,70,51,0,47,39,0,89,65,35,30.19,30.05,11,1,11,0.00
2013-4-11,70,55,42,52,45,39,91,72,46,30.06,29.79,14,1,14,0.00
2013-4-12,72,56,43,56,47,41,92,74,48,29.88,29.79,12,1,12,0.00
2013-4-13,72,57,44,55,45,40,92,68,34,29.85,29.74,13,1,13,0.00
2013-4-14,68,54,40,53,42,32,91,69,31,29.81,29.74,12,1,12,0.00
2013-4-15,59,47,35,45,37,29,90,70,42,29.83,29.76,16,2,16,0.00
2013-4-16,52,40,31,39,33,19,91,75,38,30.07,29.81,23,1,23,0.08
2013-4-17,60,46,32,35,26,12,84,50,21,30.21,30.07,18,2,18,0.00
2013-4-18,65,48,31,39,31,22,87,59,25,30.29,30.21,12,1,12,0.00
2013-4-19,73,55,36,46,38,32,88,59,28,30.27,30.05,14,1,14,0.00
2013-4-20,73,57,40,50,43,37,90,64,35,30.06,29.97,11,1,11,0.00
2013-4-21,77,60,44,54,46,41,91,66,32,30.02,29.93,13,1,13,0.00
2013-4-22,79,62,46,56,47,42,91,63,31,29.98,29.80,13,1,13,0.00
2013-4-23,77,60,46,58,45,34,89,62,23,29.88,29.80,13,1,13,0.00
2013-4-24,79,61,43,49,41,23,87,55,17,29.85,29.74,13,1,13,0.00
2013-4-25,71,57,43,54,46,40,88,70,43,30.06,29.82,13,1,13,0.00
2013-4-26,76,59,44,54,47,41,92,68,37,30.17,30.06,12,1,12,0.00
2013-4-27,81,63,0,55,47,0,91,63,30,30.17,30.02,14,1,14,0.00
2013-4-28,83,65,48,57,48,41,91,61,24,30.02,29.85,13,1,13,0.00
2013-4-29,83,65,48,57,48,42,89,60,27,29.88,29.71,15,1,15,0.00
2013-4-30,79,63,48,57,46,38,89,60,25,29.77,29.68,13,1,13,0.00
2013-5-1,79,61,44,49,41,22,85,54,17,30.09,29.77,11,1,11,0.00
2013-5-2,81,63,44,51,41,30,82,52,18,30.16,30.07,12,1,12,0.00
2013-5-3,82,64,45,54,42,30,87,53,17,30.07,29.78,12,1,12,0.00
2013-5-4,81,63,46,52,41,29,83,52,17,29.78,29.54,13,1,13,0.00
2013-5-5,70,57,44,47,41,30,80,59,27,29.79,29.58,11,1,11,0.00
2013-5-6,67,55,49,47,44,39,90,68,41,29.92,29.79,16,1,16,0.56
2013-5-7,55,51,47,51,48,44,92,89,83,30.03,29.91,8,0,8,0.09
2013-5-8,61,54,48,54,50,45,92,86,68,30.08,30.01,9,0,9,0.01
2013-5-9,68,56,44,57,49,41,92,79,61,30.10,30.05,9,0,9,0.00
2013-5-10,78,62,47,59,52,44,92,72,42,30.13,30.05,10,1,10,0.00
2013-5-11,86,68,51,61,54,46,92,66,26,30.10,30.01,12,1,12,0.00
2013-5-12,89,70,52,62,50,39,89,56,19,30.09,29.95,12,2,12,0.00
2013-5-13,90,70,52,59,49,41,86,56,21,30.00,29.87,11,1,11,0.00
2013-5-14,81,65,52,56,48,40,85,58,25,29.91,29.82,15,1,15,0.00
2013-5-15,81,64,48,56,46,34,90,58,20,29.95,29.88,15,1,15,0.00
2013-5-16,64,56,44,51,46,39,85,68,45,29.94,29.88,9,0,10,0.00
2013-5-17,70,58,45,52,44,34,90,63,30,29.98,29.88,14,2,14,0.00
2013-5-18,74,58,40,47,40,32,88,57,25,30.06,29.98,17,1,17,0.00
2013-5-19,77,60,41,50,42,36,88,56,25,30.03,29.92,11,1,14,0.00
2013-5-20,81,63,45,53,42,35,84,52,21,29.99,29.90,12,1,12,0.00
2013-5-21,82,64,48,55,39,23,83,48,13,29.92,29.78,14,1,14,0.00
2013-5-22,66,52,37,44,35,21,85,57,21,29.85,29.75,14,2,14,0.00
2013-5-23,68,51,32,39,28,21,83,49,19,29.96,29.85,13,2,13,0.00
2013-5-24,73,55,37,42,34,30,85,51,22,29.97,29.90,11,1,11,0.00
2013-5-25,75,57,39,46,34,27,83,49,20,29.96,29.92,14,1,14,0.00
2013-5-26,72,57,40,44,40,34,82,56,33,30.03,29.96,14,1,14,0.00
2013-5-27,73,58,42,49,43,36,89,61,31,30.03,29.92,10,1,13,0.00
2013-5-28,74,61,48,55,48,43,84,65,39,29.94,29.80,16,2,16,0.00
2013-5-29,76,63,48,55,49,44,87,63,37,29.86,29.77,19,2,19,0.00
2013-5-30,80,63,47,53,45,37,89,57,26,29.90,29.83,13,2,13,0.00
2013-5-31,83,65,46,52,44,40,84,52,24,29.94,29.88,13,2,13,0.00
2013-6-1,91,71,51,56,46,39,82,49,17,29.91,29.75,13,1,13,0.00
2013-6-2,92,72,53,58,44,33,77,44,13,29.75,29.59,13,1,13,0.00
2013-6-3,88,71,54,56,49,44,74,49,25,29.73,29.61,14,1,14,0.00
2013-6-4,61,58,56,54,52,50,83,79,74,29.75,29.71,1,0,1,0.00
2013-6-5,88,76,55,59,53,50,86,48,31,29.87,29.80,12,2,12,0.00
2013-6-6,90,73,56,60,54,51,85,55,28,29.84,29.74,13,1,13,0.00
2013-6-7,96,77,58,63,56,51,84,55,26,29.80,29.67,12,1,15,0.00
2013-6-8,102,81,60,64,57,49,82,51,19,29.70,29.61,14,2,14,0.00
2013-6-9,91,78,65,65,56,49,80,50,27,29.69,29.63,13,1,13,0.00
2013-6-10,76,66,56,56,52,48,83,62,46,29.87,29.64,12,1,12,0.00
2013-6-11,87,68,50,55,48,36,85,54,19,29.93,29.83,10,1,10,0.00
2013-6-12,87,70,52,56,43,29,77,44,17,29.88,29.83,15,1,15,0.00
2013-6-13,82,65,47,42,34,19,66,37,10,29.97,29.86,14,1,14,0.00
2013-6-14,83,66,47,48,37,30,71,41,18,29.90,29.77,13,2,13,0.00
2013-6-15,86,70,48,49,34,24,69,34,12,29.88,29.79,16,2,16,0.00
2013-6-16,86,68,48,48,38,33,67,38,16,29.96,29.88,17,2,17,0.00
2013-6-17,86,67,50,51,40,30,72,42,17,29.97,29.89,16,2,16,0.00
2013-6-18,78,63,47,48,40,33,73,46,22,29.92,29.83,17,2,17,0.00
2013-6-19,76,59,42,45,38,31,84,50,24,29.94,29.85,18,2,18,0.00
2013-6-20,80,62,42,44,36,32,75,44,19,29.92,29.86,15,2,15,0.00
2013-6-21,82,65,46,48,38,29,75,43,18,29.89,29.82,16,2,16,0.00
2013-6-22,85,68,49,48,39,32,70,40,16,29.87,29.77,16,1,16,0.00
2013-6-23,80,66,51,50,43,37,69,46,25,29.79,29.71,17,1,17,0.00
2013-6-24,72,64,57,56,52,45,77,65,54,29.86,29.72,10,0,10,0.00
2013-6-25,84,71,60,57,54,52,78,59,37,29.93,29.86,16,1,16,0.00
2013-6-26,88,73,56,60,55,51,86,58,34,29.97,29.89,16,2,16,0.00
2013-6-27,93,76,58,62,56,52,83,54,28,29.99,29.93,16,1,16,0.00
2013-6-28,96,80,62,63,56,54,79,49,25,29.97,29.83,14,1,14,0.00
2013-6-29,100,82,63,64,55,48,75,45,19,29.86,29.72,17,1,17,0.00
2013-6-30,102,83,65,65,55,47,72,45,17,29.76,29.67,12,2,13,0.00
2013-7-1,101,90,66,64,54,47,67,33,18,29.77,29.70,13,1,13,0.00
2013-7-2,99,83,68,64,55,49,65,41,20,29.83,29.73,11,1,11,0.00
2013-7-3,99,82,66,64,56,51,69,45,21,29.80,29.66,13,1,13,0.00
2013-7-4,100,83,66,66,58,54,71,46,24,29.69,29.59,16,1,16,0.00
2013-7-5,97,82,64,66,52,34,74,42,12,29.64,29.58,13,1,13,0.00
2013-7-6,92,76,60,54,45,36,63,38,16,29.70,29.63,9,1,9,0.00
2013-7-7,95,76,57,53,40,17,58,33,6,29.77,29.69,11,1,11,0.00
2013-7-8,96,76,57,49,33,16,53,27,6,29.91,29.77,16,1,16,0.00
2013-7-9,98,78,57,48,28,13,46,23,5,29.96,29.88,14,1,17,0.00
2013-7-10,99,79,58,53,37,19,44,26,6,29.91,29.80,14,1,14,0.00
2013-7-11,92,78,60,56,43,28,55,32,13,29.84,29.74,14,1,14,0.00
2013-7-12,91,73,56,49,38,31,52,31,13,29.85,29.78,16,2,16,0.00
2013-7-13,93,74,54,49,35,15,57,30,8,29.89,29.84,13,1,13,0.00
2013-7-14,94,76,57,48,37,28,48,29,12,29.90,29.80,15,1,15,0.00
2013-7-15,92,75,58,49,38,29,53,31,12,29.81,29.70,12,1,12,0.00
2013-7-16,88,71,54,48,39,33,59,35,15,29.91,29.74,14,2,14,0.00
2013-7-17,88,71,52,48,41,36,62,37,19,29.98,29.91,14,2,14,0.00
2013-7-18,92,74,55,50,42,36,62,36,16,29.98,29.85,14,1,14,0.00
2013-7-19,96,77,58,50,42,38,58,33,14,29.87,29.74,14,1,14,0.00
2013-7-20,97,80,62,55,45,39,58,34,15,29.77,29.65,14,1,16,0.00
2013-7-21,99,81,64,55,45,38,55,32,14,29.78,29.66,14,1,14,0.00
2013-7-22,91,77,67,63,52,44,83,44,21,29.86,29.72,14,1,14,0.04
2013-7-23,90,75,65,66,58,42,88,60,24,29.92,29.83,13,1,13,0.03
2013-7-24,94,78,61,61,51,45,72,44,20,29.89,29.79,15,2,15,0.00
2013-7-25,93,78,65,59,53,51,64,44,25,29.90,29.82,12,1,12,0.00
2013-7-26,96,79,64,63,51,40,71,42,17,29.96,29.88,13,2,13,0.00
2013-7-27,93,78,64,57,46,36,58,36,15,29.90,29.76,17,1,17,0.00
2013-7-28,94,77,61,54,44,36,53,34,15,29.76,29.69,16,1,16,0.00
2013-7-29,91,75,58,52,45,40,62,38,20,29.91,29.73,13,1,14,0.00
2013-7-30,91,74,57,52,44,38,58,38,18,29.97,29.90,15,1,15,0.00
2013-7-31,91,74,58,54,44,27,63,39,15,29.96,29.87,14,1,14,0.00
2013-8-1,88,69,54,48,35,20,62,35,9,29.93,29.85,17,2,18,0.00
2013-8-2,86,68,50,45,35,30,54,33,15,29.90,29.83,15,1,15,0.00
2013-8-3,88,70,51,47,35,29,60,32,14,29.90,29.84,15,1,15,0.00
2013-8-4,91,72,53,48,36,31,54,32,14,29.91,29.85,12,1,12,0.00
2013-8-5,90,72,54,46,39,34,58,33,15,29.91,29.83,18,2,18,0.00
2013-8-6,88,69,54,45,39,35,54,35,19,29.92,29.86,15,1,15,0.00
2013-8-7,82,67,54,51,43,38,62,44,24,29.97,29.91,15,1,15,0.00
2013-8-8,82,65,50,49,42,37,75,47,24,29.94,29.85,15,1,15,0.00
2013-8-9,84,66,48,47,40,37,71,43,21,29.92,29.84,15,1,15,0.00
2013-8-10,84,67,50,46,40,36,68,41,20,29.95,29.90,17,2,17,0.00
2013-8-11,87,69,51,48,41,38,69,42,20,29.94,29.85,17,2,17,0.00
2013-8-12,89,70,52,50,41,34,68,39,15,29.92,29.86,16,1,16,0.00
2013-8-13,93,73,53,49,39,31,65,35,12,29.92,29.84,15,1,15,0.00
2013-8-14,94,74,54,45,34,18,58,30,8,29.90,29.82,15,2,15,0.00
2013-8-15,95,74,54,40,29,17,47,24,6,29.89,29.83,19,2,19,0.00
2013-8-16,96,76,56,42,34,21,39,24,10,29.91,29.84,18,2,18,0.00
2013-8-17,94,76,60,46,40,33,48,30,13,29.90,29.76,16,2,16,0.00
2013-8-18,96,78,61,49,42,31,52,31,11,29.82,29.73,14,1,14,0.00
2013-8-19,100,82,64,64,47,41,82,32,14,29.82,29.71,20,2,20,0.08
2013-8-20,93,74,61,59,53,47,75,52,22,29.78,29.70,8,0,8,0.00
2013-8-21,95,76,61,56,44,23,68,38,9,29.82,29.75,13,1,13,0.00
2013-8-22,92,74,57,48,36,28,52,29,12,29.85,29.76,12,1,12,0.00
2013-8-23,89,71,54,47,39,31,54,35,18,29.81,29.72,14,2,14,0.00
2013-8-24,89,70,52,48,40,32,67,40,14,29.82,29.74,16,1,16,0.00
2013-8-25,87,69,54,48,42,34,63,40,18,29.88,29.82,11,1,11,0.00
2013-8-26,88,70,53,47,42,30,65,41,13,29.92,29.81,13,1,13,0.00
2013-8-27,88,73,58,51,47,38,66,42,21,29.84,29.73,13,1,13,0.00
2013-8-28,91,75,61,57,50,46,69,44,24,29.85,29.75,12,1,12,0.00
2013-8-29,93,75,58,55,48,44,71,43,21,29.95,29.85,13,1,13,0.00
2013-8-30,93,75,58,52,46,40,63,39,20,29.95,29.84,14,1,14,0.00
2013-8-31,91,74,61,53,46,43,56,40,22,29.91,29.82,12,0,12,0.00
2013-9-1,91,75,60,55,50,46,66,45,23,29.86,29.78,14,1,14,0.00
2013-9-2,89,75,61,57,54,52,72,51,31,29.85,29.77,13,1,13,0.00
2013-9-3,87,74,64,58,55,50,71,52,30,29.87,29.81,11,1,11,0.00
2013-9-4,89,75,62,58,53,50,71,50,27,29.91,29.83,10,1,12,0.00
2013-9-5,89,73,59,58,52,48,76,51,26,29.90,29.83,12,1,12,0.00
2013-9-6,90,72,57,54,49,45,76,49,23,29.90,29.79,12,1,12,0.00
2013-9-7,94,73,55,52,43,36,73,41,14,29.86,29.78,16,1,16,0.00
2013-9-8,94,74,56,48,40,29,56,34,11,29.82,29.71,17,1,17,0.00
2013-9-9,92,74,58,53,41,29,59,35,11,29.74,29.64,17,2,17,0.00
2013-9-10,91,73,57,50,41,35,58,35,18,29.80,29.68,12,1,12,0.00
2013-9-11,84,70,57,49,44,41,58,41,25,29.89,29.79,13,1,13,0.00
2013-9-12,84,69,55,51,47,43,71,48,25,29.90,29.80,16,1,16,0.00
2013-9-13,87,71,56,53,49,47,75,50,27,29.84,29.68,13,1,13,0.00
2013-9-14,91,72,57,56,50,48,75,50,27,29.73,29.63,13,1,13,0.00
2013-9-15,92,73,59,54,48,31,73,45,12,29.76,29.68,10,1,10,0.00
2013-9-16,89,70,55,49,44,40,64,43,19,29.80,29.71,11,1,11,0.00
2013-9-17,81,65,51,51,44,36,77,50,26,29.77,29.72,15,1,15,0.00
2013-9-18,78,61,47,47,41,36,76,51,27,29.84,29.76,17,1,17,0.00
2013-9-19,89,66,47,49,37,19,79,42,8,29.85,29.75,13,1,13,0.00
2013-9-20,85,66,50,42,35,27,59,35,16,29.79,29.71,11,1,11,0.00
2013-9-21,70,56,44,55,45,34,90,67,43,29.83,29.67,26,1,26,0.55
2013-9-22,67,53,41,50,44,38,92,75,47,29.97,29.82,15,1,15,0.00
2013-9-23,78,59,45,54,47,42,92,69,35,30.00,29.92,11,1,11,0.00
2013-9-24,81,61,46,53,45,42,89,61,27,29.97,29.81,12,1,12,0.00
2013-9-25,66,55,43,48,42,36,86,65,38,29.81,29.72,18,1,18,0.00
2013-9-26,66,51,38,43,36,28,89,61,25,29.97,29.72,15,1,15,0.00
2013-9-27,70,52,36,40,33,29,81,53,24,30.11,29.97,10,1,14,0.00
2013-9-28,79,58,41,44,32,19,81,47,12,30.11,30.03,12,1,12,0.00
2013-9-29,82,61,43,41,33,21,70,42,12,30.10,30.02,17,1,17,0.00
2013-9-30,78,60,44,45,39,31,76,52,21,30.05,29.92,9,1,14,0.00
2013-10-1,76,59,47,50,45,42,85,64,35,29.95,29.87,15,1,15,0.00
2013-10-2,76,59,45,52,43,35,89,60,27,29.94,29.87,12,1,12,0.00
2013-10-3,70,53,41,43,34,26,83,53,24,29.95,29.88,13,1,13,0.00
2013-10-4,73,53,37,37,31,27,74,48,20,30.16,29.95,14,1,14,0.00
2013-10-5,77,56,38,36,26,13,65,38,10,30.24,30.16,11,1,12,0.00
2013-10-6,81,59,41,38,26,13,63,36,9,30.18,30.03,12,1,12,0.00
2013-10-7,81,60,46,38,25,12,56,32,8,30.03,29.87,14,1,14,0.00
2013-10-8,75,57,42,34,27,17,58,36,12,29.89,29.67,13,1,13,0.00
2013-10-9,50,48,43,46,40,31,89,76,53,29.77,29.56,6,0,6,0.34
2013-10-10,63,49,40,45,41,37,91,76,48,30.02,29.77,7,0,8,0.01
2013-10-11,70,52,40,50,40,37,92,68,33,30.07,29.97,14,1,14,0.00
2013-10-12,70,53,40,49,39,37,90,64,32,30.00,29.89,7,1,10,0.00
2013-10-13,68,52,41,46,39,37,88,65,35,30.07,29.87,11,1,11,0.00
2013-10-14,72,53,39,47,38,32,89,62,25,30.12,30.02,12,1,12,0.00
2013-10-15,72,54,41,48,38,34,87,60,26,30.07,29.98,13,1,13,0.00
2013-10-16,76,56,40,46,32,22,82,50,16,30.14,30.04,11,1,11,0.00
2013-10-17,74,55,41,43,33,29,75,49,20,30.08,29.98,13,1,13,0.00
2013-10-18,80,56,40,46,31,18,78,46,11,30.08,30.01,11,1,11,0.00
2013-10-19,81,57,40,38,27,19,62,39,11,30.10,30.02,14,1,14,0.00
2013-10-20,78,56,40,39,30,16,67,44,11,30.06,29.93,12,1,12,0.00
2013-10-21,82,57,41,44,32,23,73,45,13,30.01,29.93,9,1,9,0.00
2013-10-22,83,59,42,40,26,12,57,35,8,30.03,29.93,13,1,13,0.00
2013-10-23,79,58,43,40,28,16,59,38,11,29.95,29.88,11,1,11,0.00
2013-10-24,76,56,43,43,35,27,72,50,19,30.07,29.93,11,1,11,0.00
2013-10-25,76,56,42,44,38,33,80,56,24,30.14,30.06,11,1,11,0.00
2013-10-26,80,57,40,47,36,30,80,52,19,30.15,30.04,10,1,10,0.00
2013-10-27,74,56,42,40,35,26,77,49,21,30.05,29.59,16,1,16,0.00
2013-10-28,47,43,36,42,39,34,91,88,76,29.90,29.63,13,1,13,0.91
2013-10-29,54,44,34,43,37,32,92,79,54,30.05,29.90,10,0,10,0.00
2013-10-30,60,44,33,44,36,31,91,76,46,30.16,30.05,12,1,12,0.00
2013-10-31,69,47,36,47,36,31,92,71,27,30.20,30.13,8,1,8,0.00
2013-11-1,76,52,36,46,32,18,84,57,13,30.22,30.07,12,1,12,0.00
2013-11-2,73,51,38,46,34,25,82,60,20,30.08,29.91,13,1,13,0.00
2013-11-3,62,47,37,45,36,33,87,67,35,29.96,29.87,7,1,11,0.00
2013-11-4,57,44,32,42,35,29,89,72,42,30.08,29.84,11,1,11,0.00
2013-11-5,62,43,30,39,31,27,90,68,31,30.31,30.08,9,0,9,0.00
2013-11-6,72,49,35,42,29,15,86,55,12,30.33,30.25,9,0,9,0.00
2013-11-7,71,52,40,42,30,18,70,48,14,30.25,30.10,10,0,10,0.00
2013-11-8,71,50,37,42,31,24,77,54,18,30.11,30.00,12,1,12,0.00
2013-11-9,73,51,38,44,32,25,81,55,18,30.10,30.02,9,1,9,0.00
2013-11-10,76,52,38,42,25,1,74,45,6,30.15,30.09,11,0,11,0.00
2013-11-11,75,52,37,42,27,15,67,44,12,30.23,30.12,11,1,11,0.00
2013-11-12,76,57,46,41,32,14,60,42,11,30.29,30.18,13,0,13,0.00
2013-11-13,70,51,40,41,36,31,84,59,30,30.23,30.10,10,1,10,0.00
2013-11-14,72,53,39,46,39,35,88,63,32,30.14,29.83,12,1,12,0.00
2013-11-15,61,46,37,44,37,33,90,74,48,29.84,29.70,9,0,9,0.00
2013-11-16,61,44,35,44,37,32,91,76,49,29.95,29.78,11,0,11,0.00
2013-11-17,61,44,34,45,35,31,91,73,41,30.14,29.95,9,0,9,0.00
2013-11-18,63,47,36,44,36,32,89,69,38,30.17,30.08,11,1,11,0.00
2013-11-19,61,48,37,43,39,33,89,72,50,30.12,29.98,12,1,12,0.02
2013-11-20,58,50,44,49,46,42,92,85,71,30.00,29.83,8,0,8,0.42
2013-11-21,55,49,40,48,42,24,92,78,35,29.93,29.82,21,1,21,0.73
2013-11-22,53,46,38,45,39,24,89,79,35,30.01,29.91,22,2,22,0.00
2013-11-23,56,42,33,41,35,30,91,78,53,30.16,29.99,10,0,10,0.00
2013-11-24,58,42,31,44,34,29,92,78,46,30.31,30.15,11,1,11,0.00
2013-11-25,61,42,32,47,36,29,92,79,46,30.36,30.30,10,1,10,0.01
2013-11-26,68,46,34,50,35,30,92,71,28,30.32,30.13,7,0,7,0.00
2013-11-27,68,47,36,45,33,23,84,64,20,30.13,29.90,10,1,10,0.00
2013-11-28,63,46,37,43,36,32,86,70,37,30.12,29.89,9,0,9,0.00
2013-11-29,64,45,34,44,34,31,90,71,31,30.28,30.12,10,1,10,0.00
2013-11-30,63,44,34,46,35,31,91,74,36,30.32,30.23,8,1,14,0.00
2013-12-1,66,44,33,48,36,31,91,75,35,30.38,30.26,9,1,9,0.00
2013-12-2,69,46,34,49,36,31,90,73,27,30.31,29.96,11,1,11,0.00
2013-12-3,46,41,31,44,38,29,91,89,82,29.96,29.75,11,0,11,0.52
2013-12-4,41,32,0,33,27,0,91,83,66,30.08,29.90,8,0,8,0.00
2013-12-5,41,30,22,30,24,18,90,77,50,30.21,30.07,12,1,12,0.00
2013-12-6,42,31,21,30,24,18,89,76,53,30.24,30.09,10,1,10,0.00
2013-12-7,38,30,15,32,25,11,90,84,67,30.23,29.98,8,1,11,0.56
2013-12-8,39,21,12,26,16,7,90,81,50,30.39,30.23,7,0,7,0.00
2013-12-9,45,25,14,30,18,10,90,78,38,30.52,30.38,10,1,10,0.00
2013-12-10,53,32,19,32,23,15,87,74,31,30.52,30.30,1,0,1,0.00
2013-12-11,63,38,27,36,25,7,86,68,13,30.32,30.24,8,1,8,0.00
2013-12-12,61,38,27,38,25,16,84,67,19,30.32,30.24,10,1,10,0.00
2013-12-13,55,36,26,36,26,20,87,71,28,30.41,30.25,9,0,9,0.00
2013-12-14,63,39,28,40,27,15,88,68,17,30.48,30.38,9,1,9,0.00
2013-12-15,67,43,30,43,30,24,83,66,23,30.44,30.31,10,0,10,0.00
2013-12-16,78,48,35,45,33,24,78,62,16,30.33,30.20,8,0,8,0.00
2013-12-17,76,51,38,51,35,25,78,58,16,30.27,30.06,8,0,8,0.00
2013-12-18,70,55,45,44,37,26,73,53,20,30.07,29.68,11,0,11,0.00
2013-12-19,48,42,34,42,38,30,89,84,73,29.88,29.61,10,1,10,0.00
2013-12-20,47,39,30,39,34,26,91,83,67,30.03,29.88,10,1,10,0.00
2013-12-21,51,40,30,38,33,27,89,79,53,30.15,29.97,9,1,9,0.00
2013-12-22,62,40,29,41,31,26,91,73,32,30.40,30.15,7,0,7,0.00
2013-12-23,66,44,33,46,32,26,87,69,23,30.47,30.39,10,1,10,0.00
2013-12-24,63,43,33,44,33,29,89,73,33,30.40,30.27,9,1,9,0.00
2013-12-25,68,43,31,42,28,12,85,63,15,30.39,30.31,11,1,11,0.00
2013-12-26,70,44,32,45,29,20,80,62,15,30.35,30.26,11,0,11,0.00
2013-12-27,71,46,32,41,27,12,77,54,11,30.34,30.17,7,1,7,0.00
2013-12-28,64,41,30,36,27,17,84,61,19,30.17,30.04,9,1,9,0.00
2013-12-29,65,41,27,38,23,6,84,57,12,30.29,30.14,9,0,9,0.00
2013-12-30,68,44,32,37,22,3,71,50,9,30.33,30.26,7,0,7,0.00
2013-12-31,66,43,32,38,26,13,77,56,16,30.30,30.18,9,1,9,0.00
2014-1-1,69,43,31,40,29,25,81,62,21,30.26,30.18,9,0,9,0.00
2014-1-2,69,45,34,42,29,21,77,57,18,30.24,30.11,11,1,11,0.00